When you browse on this site, cookies collect data to enhance your experience and personalize the content and advertising you see.
Visit our Privacy Policy to learn more. By continuing to use the site, you agree to this use of cookies and data.
  • In France
  • List of Countries
  • For 7 days
  • Water Temperature
  • Satellite Maps
  • Weather Map
  • Weather Widgets
  • user-avatar
    Login

    Hourly Weather Wantouqiao

    Today, 19 July, Friday

    Time Temperature Precipitation Wind Pressure Humidity
    00:00 +25°C° 0 mm 0 mps 723 mmHg 96%
    01:00 +25°C° 0 mm 0 mps 723 mmHg 96%
    02:00 +25°C° 0 mm 0 mps 722 mmHg 96%
    03:00 +25°C° 0 mm 0 mps 722 mmHg 96%
    04:00 +24°C° 0 mm 0 mps 722 mmHg 97%
    05:00 +25°C° 0.1 mm 0 mps 723 mmHg 95%
    06:00 +28°C° 0.1 mm 1 mps 723 mmHg 94%
    07:00 +28°C° 0.1 mm 1 mps 724 mmHg 93%
    08:00 +29°C° 0.8 mm 1 mps 724 mmHg 89%
    09:00 +30°C° 0.8 mm 2 mps 724 mmHg 85%
    10:00 +31°C° 0.8 mm 2 mps 724 mmHg 82%
    11:00 +32°C° 0.9 mm 2 mps 724 mmHg 78%
    12:00 +34°C° 0.9 mm 2 mps 724 mmHg 75%
    13:00 +34°C° 0.9 mm 2 mps 723 mmHg 71%
    14:00 +33°C° 0.7 mm 1 mps 723 mmHg 72%
    15:00 +33°C° 0.7 mm 1 mps 722 mmHg 72%
    16:00 +33°C° 0.7 mm 1 mps 722 mmHg 73%
    17:00 +32°C° 1.5 mm 1 mps 722 mmHg 78%
    18:00 +30°C° 1.5 mm 1 mps 722 mmHg 83%
    19:00 +27°C° 1.5 mm 0 mps 723 mmHg 88%
    20:00 +26°C° 0.8 mm 0 mps 723 mmHg 90%
    21:00 +26°C° 0.8 mm 0 mps 723 mmHg 91%
    22:00 +26°C° 0.8 mm 0 mps 724 mmHg 92%
    23:00 +25°C° 1.4 mm 0 mps 724 mmHg 93%

    Tomorrow, 20 July, Saturday

    Time Temperature Precipitation Wind Pressure Humidity
    00:00 +25°C° 1.4 mm 0 mps 723 mmHg 95%
    01:00 +25°C° 1.4 mm 0 mps 723 mmHg 96%
    02:00 +25°C° 0.3 mm 0 mps 723 mmHg 96%
    03:00 +24°C° 0.3 mm 0 mps 723 mmHg 97%
    04:00 +24°C° 0.3 mm 0 mps 723 mmHg 97%
    05:00 +25°C° 0.1 mm 0 mps 724 mmHg 96%
    06:00 +26°C° 0.1 mm 0 mps 724 mmHg 94%
    07:00 +26°C° 0.1 mm 0 mps 724 mmHg 93%
    08:00 +28°C° 0.3 mm 0 mps 724 mmHg 87%
    09:00 +30°C° 0.3 mm 0 mps 724 mmHg 81%
    10:00 +32°C° 0.3 mm 0 mps 724 mmHg 75%
    11:00 +32°C° 1.1 mm 0 mps 724 mmHg 72%
    12:00 +35°C° 1.1 mm 1 mps 723 mmHg 70%
    13:00 +35°C° 1.1 mm 1 mps 723 mmHg 67%
    14:00 +35°C° 1.1 mm 1 mps 723 mmHg 71%
    15:00 +34°C° 1.1 mm 1 mps 722 mmHg 74%
    16:00 +34°C° 1.1 mm 1 mps 722 mmHg 77%
    17:00 +32°C° 1.1 mm 1 mps 722 mmHg 82%
    18:00 +31°C° 1.1 mm 1 mps 722 mmHg 86%
    19:00 +29°C° 1.1 mm 1 mps 722 mmHg 90%
    20:00 +29°C° 0.1 mm 1 mps 723 mmHg 91%
    21:00 +27°C° 0.1 mm 0 mps 723 mmHg 93%
    22:00 +26°C° 0.1 mm 0 mps 723 mmHg 94%
    23:00 +26°C° 0 mm 0 mps 723 mmHg 94%

    Day after tomorrow, 21 July, Sunday

    Time Temperature Precipitation Wind Pressure Humidity
    00:00 +26°C° 0 mm 0 mps 723 mmHg 95%
    01:00 +26°C° 0 mm 0 mps 723 mmHg 95%
    02:00 +25°C° 0.7 mm 0 mps 723 mmHg 95%
    03:00 +27°C° 0.7 mm 1 mps 723 mmHg 95%
    04:00 +27°C° 0.7 mm 1 mps 723 mmHg 95%
    05:00 +28°C° 0.1 mm 1 mps 723 mmHg 94%
    06:00 +26°C° 0.1 mm 0 mps 724 mmHg 92%
    07:00 +27°C° 0.1 mm 0 mps 724 mmHg 90%
    08:00 +29°C° 0.2 mm 0 mps 724 mmHg 82%
    09:00 +33°C° 0.2 mm 1 mps 724 mmHg 74%
    10:00 +34°C° 0.2 mm 1 mps 724 mmHg 66%
    11:00 +35°C° 0 mm 1 mps 724 mmHg 62%
    12:00 +36°C° 0 mm 1 mps 723 mmHg 57%
    13:00 +37°C° 0 mm 1 mps 723 mmHg 53%
    14:00 +37°C° 0.2 mm 1 mps 722 mmHg 56%
    15:00 +36°C° 0.2 mm 1 mps 722 mmHg 60%
    16:00 +36°C° 0.2 mm 1 mps 721 mmHg 64%
    17:00 +34°C° 0.8 mm 1 mps 722 mmHg 72%
    18:00 +32°C° 0.8 mm 1 mps 722 mmHg 79%
    19:00 +28°C° 0.8 mm 0 mps 722 mmHg 87%
    20:00 +29°C° 0.6 mm 1 mps 723 mmHg 89%
    21:00 +29°C° 0.6 mm 1 mps 723 mmHg 91%
    22:00 +28°C° 0.6 mm 1 mps 723 mmHg 92%
    23:00 +28°C° 0 mm 1 mps 723 mmHg 93%

    22 July, Monday

    Time Temperature Precipitation Wind Pressure Humidity
    00:00 +28°C° 0 mm 1 mps 723 mmHg 93%
    01:00 +27°C° 0 mm 1 mps 722 mmHg 94%
    02:00 +27°C° 0 mm 1 mps 722 mmHg 94%
    03:00 +27°C° 0 mm 1 mps 722 mmHg 94%
    04:00 +26°C° 0 mm 1 mps 722 mmHg 94%
    05:00 +27°C° 0 mm 1 mps 722 mmHg 92%
    06:00 +28°C° 0 mm 1 mps 723 mmHg 90%
    07:00 +29°C° 0 mm 1 mps 723 mmHg 88%
    08:00 +31°C° 0 mm 1 mps 723 mmHg 78%
    09:00 +33°C° 0 mm 1 mps 723 mmHg 69%
    10:00 +35°C° 0 mm 1 mps 724 mmHg 60%
    11:00 +36°C° 0 mm 1 mps 723 mmHg 56%
    12:00 +37°C° 0 mm 1 mps 723 mmHg 53%
    13:00 +39°C° 0 mm 1 mps 722 mmHg 50%
    14:00 +37°C° 0 mm 1 mps 722 mmHg 54%
    15:00 +37°C° 0 mm 1 mps 721 mmHg 57%
    16:00 +36°C° 0 mm 1 mps 721 mmHg 61%
    17:00 +34°C° 0.3 mm 1 mps 721 mmHg 69%
    18:00 +32°C° 0.3 mm 1 mps 721 mmHg 77%
    19:00 +30°C° 0.3 mm 1 mps 722 mmHg 85%
    20:00 +30°C° 0 mm 1 mps 722 mmHg 87%
    21:00 +29°C° 0 mm 1 mps 722 mmHg 88%
    22:00 +29°C° 0 mm 1 mps 723 mmHg 90%
    23:00 +28°C° 0 mm 1 mps 722 mmHg 91%

    23 July, Tuesday

    Time Temperature Precipitation Wind Pressure Humidity
    00:00 +28°C° 0 mm 1 mps 722 mmHg 91%
    01:00 +27°C° 0 mm 1 mps 722 mmHg 92%
    02:00 +27°C° 0 mm 1 mps 722 mmHg 92%
    03:00 +27°C° 0 mm 2 mps 722 mmHg 93%
    04:00 +27°C° 0 mm 2 mps 722 mmHg 93%
    05:00 +28°C° 0 mm 1 mps 722 mmHg 90%
    06:00 +29°C° 0 mm 1 mps 723 mmHg 88%
    07:00 +29°C° 0 mm 1 mps 723 mmHg 85%
    08:00 +31°C° 0 mm 1 mps 723 mmHg 76%
    09:00 +33°C° 0 mm 1 mps 723 mmHg 67%
    10:00 +35°C° 0 mm 1 mps 723 mmHg 58%
    11:00 +36°C° 0 mm 1 mps 723 mmHg 54%
    12:00 +37°C° 0 mm 1 mps 722 mmHg 50%
    13:00 +39°C° 0 mm 1 mps 722 mmHg 46%
    14:00 +39°C° 0 mm 1 mps 722 mmHg 49%
    15:00 +37°C° 0 mm 1 mps 721 mmHg 51%
    16:00 +37°C° 0 mm 1 mps 721 mmHg 54%
    17:00 +35°C° 0 mm 1 mps 721 mmHg 62%
    18:00 +33°C° 0 mm 1 mps 721 mmHg 71%
    19:00 +31°C° 0 mm 1 mps 721 mmHg 80%
    20:00 +30°C° 0.1 mm 1 mps 722 mmHg 82%
    21:00 +29°C° 0.1 mm 1 mps 722 mmHg 84%
    22:00 +29°C° 0.1 mm 1 mps 722 mmHg 86%
    23:00 +28°C° 0 mm 1 mps 722 mmHg 87%

    24 July, Wednesday

    Time Temperature Precipitation Wind Pressure Humidity
    00:00 +28°C° 0 mm 1 mps 722 mmHg 89%
    01:00 +28°C° 0 mm 2 mps 722 mmHg 90%
    02:00 +27°C° 0 mm 2 mps 722 mmHg 91%
    03:00 +27°C° 0 mm 2 mps 722 mmHg 91%
    04:00 +27°C° 0 mm 2 mps 722 mmHg 91%
    05:00 +28°C° 0 mm 1 mps 722 mmHg 88%
    06:00 +29°C° 0 mm 1 mps 723 mmHg 85%
    07:00 +30°C° 0 mm 1 mps 723 mmHg 81%
    08:00 +31°C° 0 mm 1 mps 723 mmHg 74%
    09:00 +33°C° 0 mm 1 mps 724 mmHg 66%
    10:00 +36°C° 0 mm 2 mps 724 mmHg 58%
    11:00 +36°C° 0.1 mm 1 mps 723 mmHg 55%
    12:00 +37°C° 0.1 mm 1 mps 723 mmHg 51%
    13:00 +39°C° 0.1 mm 1 mps 723 mmHg 48%
    14:00 +37°C° 0.1 mm 1 mps 722 mmHg 54%
    15:00 +36°C° 0.1 mm 1 mps 722 mmHg 59%
    16:00 +35°C° 0.1 mm 1 mps 721 mmHg 65%
    17:00 +33°C° 0.5 mm 1 mps 722 mmHg 72%
    18:00 +31°C° 0.5 mm 1 mps 722 mmHg 79%
    19:00 +30°C° 0.5 mm 1 mps 722 mmHg 85%
    20:00 +29°C° 0 mm 1 mps 723 mmHg 87%
    21:00 +28°C° 0 mm 1 mps 723 mmHg 89%
    22:00 +28°C° 0 mm 1 mps 724 mmHg 90%
    23:00 +27°C° 0 mm 1 mps 723 mmHg 91%
    Show more